Regional Weather Roundup
Issued by NWS

Home | Current Version | Previous Version | Graphics & Text | Print | Product List | Glossary Off
Versions: 1 2 3 4 5 6 7 8 9 10 11 12 13 14 15 16 17 18 19 20 21 22 23 24 25 26 27 28 29 30 31 32 33 34 35 36 37 38 39 40 41 42 43 44 45 46 47 48 49 50

000
ASUS43 KTOP 220108
RWRKS

WEATHER ROUNDUP FOR KANSAS
NATIONAL WEATHER SERVICE GOODLAND KS
800 PM CDT THU AUG 21 2014

NOTE:  "FAIR" INDICATES FEW OR NO CLOUDS BELOW 12,000 FEET WITH NO
SIGNIFICANT WEATHER AND/OR OBSTRUCTIONS TO VISIBILITY.

KSZ001>006-013>018-027>032-041>047-220200-
NORTHWEST KANSAS

CITY           SKY/WX    TMP DP  RH WIND       PRES   REMARKS
GOODLAND       CLEAR     88  49  25 E7        29.98R
HAYS           MOCLDY    90  68  48 S8        29.81S
HILL CITY      CLEAR     93  62  35 N7        29.84R
RUSSELL        PTCLDY    92  64  39 S12       29.80R
$$

KSZ061>065-074>080-084>089-220200-
SOUTHWEST KANSAS

CITY           SKY/WX    TMP DP  RH WIND       PRES   REMARKS
DODGE CITY     PTCLDY    91  63  39 S14       29.87R
ELKHART          N/A     84  60  44 S8          N/A
GARDEN CITY    CLEAR     91  61  36 W6        29.88S
GREAT BEND     PTCLDY    93  64  38 S17       29.82R HX  95
LIBERAL        CLOUDY    84  57  39 S15G24    29.93R
PRATT          CLEAR     91  59  33 S16       29.87R
$$

KSZ066>073-081>083-090>101-220200-
SOUTHEAST KANSAS

CITY           SKY/WX    TMP DP  RH WIND       PRES   REMARKS
CHANUTE        CLEAR     88  71  57 S14       29.91S
COFFEYVILLE    CLEAR     88  72  58 S13G22    29.91R
HUTCHINSON     CLEAR     94  64  37 S15       29.84R HX  95
MEDICINE LODGE   N/A     95  65  37 S10       29.84R HX  97
NEWTON         CLEAR     90  64  43 S16G25    29.90S
PARSONS        CLEAR     88  72  58 S8        29.92S
WICHITA INTL   CLEAR     91  67  44 S20       29.85R
WICHITA JABRA  CLEAR     90  67  46 S16       29.86R
WICHITA MCCONL CLEAR     90  68  47 SE18      29.87R
WINFIELD       CLEAR     89  69  51 SE12      29.89R
$$

KSZ007>012-019>026-033>040-048>060-102>105-220200-
NORTHEAST KANSAS

CITY           SKY/WX    TMP DP  RH WIND       PRES   REMARKS
CONCORDIA      MOCLDY    89  69  51 S9        29.81R
EMPORIA        CLEAR     90  67  46 S14       29.87R
LAWRENCE       CLEAR     92  71  50 S9        29.84R HX  98
MANHATTAN      CLEAR     93  69  45 S10       29.81R HX  98
MARYSVILLE     PTCLDY    88  70  55 S3        29.81S
OLATHE IND     CLEAR     89  72  56 S12       29.87S HX  96
OLATHE EXE     CLEAR     88  72  58 S9        29.87R
SALINA         CLEAR     94  66  39 S14       29.81R HX  97
TOPEKA BILLARD CLEAR     95  69  42 S9G17     29.84R HX 100
TOPEKA FORBES  CLEAR     92  69  47 S12       29.85R HX  97
$$



USA.gov is the U.S. government's official web portal to all federal, state and local government web resources and services.